Location: *
(50.9167°S, 179.4000°W)
Time: 20:14:16
(UTC+00:00)

Gbstr 26 Del rocket - Pass Details

Date: 03 March 2024
Orbit: 490 x 1242 km, 51.8° (Epoch: 16 April)

Event Time Altitude Azimuth Distance (km) Brightness Sun altitude
Exits shadow 16:00:00 18° 320° (NW) 2,247 5.3 -14.4°
Maximum altitude 16:04:48 52° 29° (NNE) 1,103 4.3 -13.7°
Drops below altitude 10° 16:10:07 10° 104° (ESE) 2,330 7.4 -13.0°
Sets 16:12:21 0° 109° (ESE) 3,149 8.6 -12.6°
